Time,TemperatureF,DewpointF,PressureIn,WindDirection,WindDirectionDegrees,WindSpeedMPH,WindSpeedGustMPH,Humidity,HourlyPrecipIn,Conditions,Clouds,dailyrainin,SoftwareType,DateUTC
2013-03-01 00:00:00,33.4,30.0,29.98,West,267,2.5,2.5,87,0.00,-SN,,0.02,WeatherDisplay:10.37,2013-03-01 05:00:00,
2013-03-01 00:06:00,33.4,30.0,29.98,West,267,2.1,3.5,87,0.00,-SN,,0.00,WeatherDisplay:10.37,2013-03-01 05:06:00,
2013-03-01 00:11:00,33.4,30.0,29.98,WSW,245,2.1,2.3,87,0.00,OVC,,0.00,WeatherDisplay:10.37,2013-03-01 05:11:00,
2013-03-01 00:16:00,33.3,29.8,29.98,WNW,289,2.7,2.7,87,0.00,OVC,,0.00,WeatherDisplay:10.37,2013-03-01 05:16:00,
2013-03-01 00:21:00,33.3,29.8,29.97,WNW,289,3.4,3.5,87,0.00,OVC,,0.00,WeatherDisplay:10.37,2013-03-01 05:21:00,
2013-03-01 00:26:00,33.3,29.8,29.97,West,267,1.7,2.0,87,0.00,OVC,,0.00,WeatherDisplay:10.37,2013-03-01 05:26:00,
2013-03-01 00:31:00,33.3,29.8,29.97,West,267,2.0,4.6,87,0.00,OVC,,0.00,WeatherDisplay:10.37,2013-03-01 05:31:00,
2013-03-01 00:36:00,33.3,29.8,29.97,West,267,2.9,3.4,87,0.00,OVC,,0.00,WeatherDisplay:10.37,2013-03-01 05:36:00,
2013-03-01 00:41:00,33.1,29.6,29.97,West,267,0.0,3.5,87,0.00,OVC,,0.00,WeatherDisplay:10.37,2013-03-01 05:41:00,
2013-03-01 00:46:00,33.1,29.6,29.97,NW,312,0.0,0.0,87,0.00,OVC,,0.00,WeatherDisplay:10.37,2013-03-01 05:46:00,
2013-03-01 00:51:00,33.1,29.6,29.97,West,267,4.9,4.9,87,0.00,OVC,,0.00,WeatherDisplay:10.37,2013-03-01 05:51:00,
2013-03-01 00:56:00,33.1,29.6,29.97,WSW,245,3.1,3.5,87,0.00,OVC,,0.00,WeatherDisplay:10.37,2013-03-01 05:56:00,
2013-03-01 01:01:00,33.1,29.6,29.98,West,267,1.8,4.6,87,0.00,OVC,,0.00,WeatherDisplay:10.37,2013-03-01 06:01:00,
2013-03-01 01:06:00,33.1,29.6,29.98,South,177,1.4,1.6,87,0.00,OVC,,0.00,WeatherDisplay:10.37,2013-03-01 06:06:00,
2013-03-01 01:11:00,33.1,29.6,29.97,WNW,289,3.1,3.5,87,0.00,-SN,,0.00,WeatherDisplay:10.37,2013-03-01 06:11:00,
2013-03-01 01:16:00,33.3,29.8,29.97,WNW,289,4.2,4.6,87,0.00,-SN,,0.00,WeatherDisplay:10.37,2013-03-01 06:16:00,
2013-03-01 01:21:00,33.3,29.8,29.98,WNW,289,4.7,5.6,87,0.00,-SN,,0.00,WeatherDisplay:10.37,2013-03-01 06:21:00,
2013-03-01 01:26:00,33.3,29.8,29.98,WNW,289,4.0,4.0,87,0.00,-SN,,0.00,WeatherDisplay:10.37,2013-03-01 06:26:00,
2013-03-01 01:31:00,33.3,29.8,29.98,WNW,289,3.4,3.6,87,0.00,-SN,,0.00,WeatherDisplay:10.37,2013-03-01 06:31:00,
2013-03-01 01:36:00,33.4,30.0,29.98,WNW,289,1.2,0.0,87,0.00,-SN,,0.00,WeatherDisplay:10.37,2013-03-01 06:36:00,
2013-03-01 01:41:00,33.3,29.8,29.97,NW,312,0.0,3.5,87,0.00,-SN,,0.00,WeatherDisplay:10.37,2013-03-01 06:41:00,
2013-03-01 01:46:00,33.3,29.8,29.97,West,267,5.1,5.1,87,0.00,-SN,,0.00,WeatherDisplay:10.37,2013-03-01 06:46:00,
2013-03-01 01:51:00,33.3,29.8,29.97,WNW,289,4.2,5.8,87,0.00,-SN,,0.00,WeatherDisplay:10.37,2013-03-01 06:51:00,
2013-03-01 01:56:00,33.3,29.8,29.97,WNW,289,1.6,5.8,87,0.00,-SN,,0.00,WeatherDisplay:10.37,2013-03-01 06:56:00,
2013-03-01 02:01:00,33.3,29.8,29.97,WNW,289,4.5,4.6,87,0.00,-SN,,0.00,WeatherDisplay:10.37,2013-03-01 07:01:00,
2013-03-01 02:06:00,33.4,30.0,29.96,West,267,3.8,4.7,87,0.00,-SN,,0.00,WeatherDisplay:10.37,2013-03-01 07:06:00,
2013-03-01 02:11:00,33.4,30.0,29.97,NW,312,3.3,6.9,87,0.00,OVC,,0.00,WeatherDisplay:10.37,2013-03-01 07:11:00,
2013-03-01 02:16:00,33.4,30.0,29.97,WNW,289,0.0,3.5,87,0.00,OVC,,0.00,WeatherDisplay:10.37,2013-03-01 07:16:00,
2013-03-01 02:21:00,33.4,30.0,29.96,NNW,335,2.3,3.8,87,0.00,OVC,,0.00,WeatherDisplay:10.37,2013-03-01 07:21:00,
2013-03-01 02:26:00,33.4,30.0,29.97,NNW,335,3.0,3.5,87,0.00,OVC,,0.00,WeatherDisplay:10.37,2013-03-01 07:26:00,
2013-03-01 02:31:00,33.4,30.0,29.96,WNW,289,1.1,1.1,87,0.00,OVC,,0.00,WeatherDisplay:10.37,2013-03-01 07:31:00,
2013-03-01 02:36:00,33.4,30.0,29.97,NW,312,2.1,3.5,87,0.00,OVC,,0.00,WeatherDisplay:10.37,2013-03-01 07:36:00,
2013-03-01 02:41:00,33.4,30.0,29.96,WNW,289,1.6,2.3,87,0.00,OVC,,0.00,WeatherDisplay:10.37,2013-03-01 07:41:00,
2013-03-01 02:46:00,33.4,30.0,29.96,NW,312,3.1,3.5,87,0.00,OVC,,0.00,WeatherDisplay:10.37,2013-03-01 07:46:00,
2013-03-01 02:51:00,33.4,30.0,29.96,SW,222,2.6,3.5,87,0.00,OVC,,0.00,WeatherDisplay:10.37,2013-03-01 07:51:00,
2013-03-01 02:56:00,33.4,30.0,29.96,West,267,1.6,1.6,87,0.00,OVC,,0.00,WeatherDisplay:10.37,2013-03-01 07:56:00,
2013-03-01 03:01:00,33.4,30.0,29.96,WNW,289,3.6,5.8,87,0.00,OVC,,0.00,WeatherDisplay:10.37,2013-03-01 08:01:00,
2013-03-01 03:06:00,33.4,30.3,29.96,WSW,245,3.0,3.0,88,0.00,OVC,,0.00,WeatherDisplay:10.37,2013-03-01 08:06:00,
2013-03-01 03:11:00,33.4,30.0,29.95,WSW,245,0.0,2.3,87,0.00,BKN,,0.00,WeatherDisplay:10.37,2013-03-01 08:11:00,
2013-03-01 03:16:00,33.4,30.0,29.95,West,267,0.0,1.3,87,0.00,BKN,,0.00,WeatherDisplay:10.37,2013-03-01 08:16:00,
2013-03-01 03:21:00,33.4,30.3,29.96,WNW,289,2.3,3.8,88,0.00,BKN,,0.00,WeatherDisplay:10.37,2013-03-01 08:21:00,
2013-03-01 03:26:00,33.4,30.3,29.96,NW,312,3.7,4.6,88,0.00,BKN,,0.00,WeatherDisplay:10.37,2013-03-01 08:26:00,
2013-03-01 03:31:00,33.4,30.3,29.95,WNW,289,5.8,5.8,88,0.00,BKN,,0.00,WeatherDisplay:10.37,2013-03-01 08:31:00,
2013-03-01 03:36:00,33.4,30.3,29.96,North,357,2.6,3.5,88,0.00,BKN,,0.00,WeatherDisplay:10.37,2013-03-01 08:36:00,
2013-03-01 03:41:00,33.4,30.3,29.95,NW,312,1.3,3.5,88,0.00,BKN,,0.00,WeatherDisplay:10.37,2013-03-01 08:41:00,
2013-03-01 03:46:00,33.4,30.3,29.95,WNW,289,4.7,4.7,88,0.00,BKN,,0.00,WeatherDisplay:10.37,2013-03-01 08:46:00,
2013-03-01 03:51:00,33.4,30.3,29.96,WNW,289,2.3,4.6,88,0.00,BKN,,0.00,WeatherDisplay:10.37,2013-03-01 08:51:00,
2013-03-01 03:56:00,33.4,30.3,29.95,NNW,335,3.1,3.5,88,0.00,BKN,,0.00,WeatherDisplay:10.37,2013-03-01 08:56:00,
2013-03-01 04:01:00,33.3,30.1,29.95,NW,312,2.0,2.3,88,0.00,BKN,,0.00,WeatherDisplay:10.37,2013-03-01 09:01:00,
2013-03-01 04:06:00,33.3,30.1,29.95,WNW,289,3.0,3.5,88,0.00,BKN,,0.00,WeatherDisplay:10.37,2013-03-01 09:06:00,
2013-03-01 04:11:00,33.1,29.9,29.95,West,267,0.0,2.3,88,0.00,-SN,,0.00,WeatherDisplay:10.37,2013-03-01 09:11:00,
2013-03-01 04:16:00,33.3,30.1,29.95,WNW,289,1.6,1.6,88,0.00,-SN,,0.00,WeatherDisplay:10.37,2013-03-01 09:16:00,
2013-03-01 04:21:00,33.1,29.9,29.96,NW,312,4.8,7.4,88,0.00,-SN,,0.00,WeatherDisplay:10.37,2013-03-01 09:21:00,
2013-03-01 04:26:00,33.1,29.9,29.95,West,267,0.0,1.8,88,0.00,-SN,,0.00,WeatherDisplay:10.37,2013-03-01 09:26:00,
2013-03-01 04:31:00,33.1,29.9,29.95,West,267,1.8,2.3,88,0.00,-SN,,0.00,WeatherDisplay:10.37,2013-03-01 09:31:00,
2013-03-01 04:36:00,33.1,29.9,29.96,NW,312,1.7,2.9,88,0.00,-SN,,0.00,WeatherDisplay:10.37,2013-03-01 09:36:00,
2013-03-01 04:41:00,33.1,29.9,29.96,NW,312,2.5,4.6,88,0.00,-SN,,0.00,WeatherDisplay:10.37,2013-03-01 09:41:00,
2013-03-01 04:46:00,33.1,29.9,29.96,NW,312,2.0,2.3,88,0.00,-SN,,0.00,WeatherDisplay:10.37,2013-03-01 09:46:00,
2013-03-01 04:51:00,32.9,29.7,29.95,West,267,2.2,2.3,88,0.00,-SN,,0.00,WeatherDisplay:10.37,2013-03-01 09:51:00,
2013-03-01 04:56:00,32.9,29.7,29.96,NW,312,0.0,2.3,88,0.00,-SN,,0.00,WeatherDisplay:10.37,2013-03-01 09:56:00,
2013-03-01 05:01:00,32.9,29.7,29.96,West,267,1.6,1.6,88,0.00,-SN,,0.00,WeatherDisplay:10.37,2013-03-01 10:01:00,
2013-03-01 05:06:00,32.9,29.7,29.97,West,267,0.0,0.0,88,0.00,-SN,,0.00,WeatherDisplay:10.37,2013-03-01 10:06:00,
2013-03-01 05:11:00,32.9,29.7,29.97,WNW,289,3.0,3.6,88,0.00,OVC,,0.00,WeatherDisplay:10.37,2013-03-01 10:11:00,
2013-03-01 05:16:00,32.9,29.7,29.97,SW,222,0.0,0.0,88,0.00,OVC,,0.00,WeatherDisplay:10.37,2013-03-01 10:16:00,
2013-03-01 05:21:00,32.9,29.7,29.97,NW,312,2.2,2.3,88,0.00,OVC,,0.00,WeatherDisplay:10.37,2013-03-01 10:21:00,
2013-03-01 05:26:00,32.9,29.7,29.97,WNW,289,2.0,2.3,88,0.00,OVC,,0.00,WeatherDisplay:10.37,2013-03-01 10:26:00,
2013-03-01 05:31:00,32.9,29.7,29.97,NW,312,2.9,3.5,88,0.00,OVC,,0.00,WeatherDisplay:10.37,2013-03-01 10:31:00,
2013-03-01 05:36:00,32.9,29.7,29.97,West,267,2.2,2.3,88,0.00,OVC,,0.00,WeatherDisplay:10.37,2013-03-01 10:36:00,
2013-03-01 05:41:00,32.9,29.7,29.97,West,267,0.0,2.3,88,0.00,OVC,,0.00,WeatherDisplay:10.37,2013-03-01 10:41:00,
2013-03-01 05:46:00,32.9,29.7,29.97,NW,312,1.8,2.3,88,0.00,OVC,,0.00,WeatherDisplay:10.37,2013-03-01 10:46:00,
2013-03-01 05:51:00,32.9,29.7,29.96,WNW,289,1.8,2.3,88,0.00,OVC,,0.00,WeatherDisplay:10.37,2013-03-01 10:51:00,
2013-03-01 05:56:00,32.9,29.7,29.96,WNW,289,3.1,3.5,88,0.00,OVC,,0.00,WeatherDisplay:10.37,2013-03-01 10:56:00,
2013-03-01 06:01:00,32.9,29.7,29.97,West,267,4.7,4.7,88,0.00,OVC,,0.00,WeatherDisplay:10.37,2013-03-01 11:01:00,
2013-03-01 06:06:00,32.9,29.7,29.97,NW,312,2.1,3.5,88,0.00,OVC,,0.00,WeatherDisplay:10.37,2013-03-01 11:06:00,
2013-03-01 06:11:00,32.9,29.7,29.97,NW,312,2.0,2.3,88,0.00,-SN,,0.00,WeatherDisplay:10.37,2013-03-01 11:11:00,
2013-03-01 06:16:00,32.7,29.6,29.97,WNW,289,2.9,3.5,88,0.00,-SN,,0.00,WeatherDisplay:10.37,2013-03-01 11:16:00,
2013-03-01 06:21:00,32.7,29.6,29.96,WNW,289,2.3,4.7,88,0.00,-SN,,0.00,WeatherDisplay:10.37,2013-03-01 11:21:00,
2013-03-01 06:26:00,32.7,29.6,29.97,WSW,245,2.0,3.5,88,0.00,-SN,,0.00,WeatherDisplay:10.37,2013-03-01 11:26:00,
2013-03-01 06:31:00,32.7,29.6,29.97,NW,312,2.9,3.5,88,0.00,-SN,,0.00,WeatherDisplay:10.37,2013-03-01 11:31:00,
2013-03-01 06:36:00,32.7,29.6,29.97,NW,312,3.4,4.0,88,0.00,-SN,,0.00,WeatherDisplay:10.37,2013-03-01 11:36:00,
2013-03-01 06:41:00,32.5,29.4,29.97,West,267,2.2,2.3,88,0.00,-SN,,0.00,WeatherDisplay:10.37,2013-03-01 11:41:00,
2013-03-01 06:46:00,32.5,29.4,29.97,NNW,335,2.3,2.5,88,0.00,-SN,,0.00,WeatherDisplay:10.37,2013-03-01 11:46:00,
2013-03-01 06:51:00,32.5,29.4,29.97,NW,312,2.1,3.6,88,0.00,-SN,,0.00,WeatherDisplay:10.37,2013-03-01 11:51:00,
2013-03-01 06:56:00,32.5,29.4,29.97,NNW,335,1.8,2.3,88,0.00,-SN,,0.00,WeatherDisplay:10.37,2013-03-01 11:56:00,
2013-03-01 07:01:00,32.5,29.4,29.96,WNW,289,0.1,1.1,88,0.00,-SN,,0.00,WeatherDisplay:10.37,2013-03-01 12:01:00,
2013-03-01 07:06:00,32.5,29.4,29.97,NW,312,2.3,2.5,88,0.00,-SN,,0.00,WeatherDisplay:10.37,2013-03-01 12:06:00,
2013-03-01 07:11:00,32.5,29.4,29.97,NW,312,1.0,3.5,88,0.00,-SN,,0.00,WeatherDisplay:10.37,2013-03-01 12:11:00,
2013-03-01 07:16:00,32.4,29.2,29.97,WNW,289,2.5,2.5,88,0.00,-SN,,0.00,WeatherDisplay:10.37,2013-03-01 12:16:00,
2013-03-01 07:21:00,32.4,29.2,29.97,WNW,289,1.6,2.3,88,0.00,-SN,,0.00,WeatherDisplay:10.37,2013-03-01 12:21:00,
2013-03-01 07:26:00,32.4,29.2,29.97,NNW,335,1.1,1.1,88,0.00,-SN,,0.00,WeatherDisplay:10.37,2013-03-01 12:26:00,
2013-03-01 07:31:00,32.5,29.4,29.97,NW,312,0.0,0.0,88,0.00,-SN,,0.00,WeatherDisplay:10.37,2013-03-01 12:31:00,
2013-03-01 07:36:00,32.5,29.4,29.97,NW,312,1.7,2.3,88,0.00,-SN,,0.00,WeatherDisplay:10.37,2013-03-01 12:36:00,
2013-03-01 07:41:00,32.4,29.2,29.97,NNW,335,2.5,2.5,88,0.00,-SN,,0.00,WeatherDisplay:10.37,2013-03-01 12:41:00,
2013-03-01 07:46:00,32.4,29.2,29.98,North,357,0.0,0.0,88,0.00,-SN,,0.00,WeatherDisplay:10.37,2013-03-01 12:46:00,
2013-03-01 07:51:00,32.5,29.4,29.98,North,357,0.5,1.1,88,0.00,-SN,,0.00,WeatherDisplay:10.37,2013-03-01 12:51:00,
2013-03-01 07:56:00,32.5,29.4,29.98,NNW,335,0.7,1.1,88,0.00,-SN,,0.00,WeatherDisplay:10.37,2013-03-01 12:56:00,
2013-03-01 08:01:00,32.5,29.4,29.98,NNW,335,2.2,2.5,88,0.00,-SN,,0.00,WeatherDisplay:10.37,2013-03-01 13:01:00,
2013-03-01 08:06:00,32.5,29.4,29.98,NW,312,1.9,2.3,88,0.00,-SN,,0.00,WeatherDisplay:10.37,2013-03-01 13:06:00,
2013-03-01 08:11:00,32.5,29.4,29.98,NW,312,0.0,2.3,88,0.00,-SN,,0.00,WeatherDisplay:10.37,2013-03-01 13:11:00,
2013-03-01 08:16:00,32.7,29.6,29.99,West,267,2.5,2.5,88,0.00,-SN,,0.00,WeatherDisplay:10.37,2013-03-01 13:16:00,
2013-03-01 08:21:00,32.7,29.6,29.99,WNW,289,2.4,3.5,88,0.00,-SN,,0.00,WeatherDisplay:10.37,2013-03-01 13:21:00,
2013-03-01 08:26:00,32.7,29.6,29.99,NNW,335,0.0,0.0,88,0.00,-SN,,0.00,WeatherDisplay:10.37,2013-03-01 13:26:00,
2013-03-01 08:31:00,32.9,29.7,30.00,NNW,335,2.3,2.5,88,0.00,-SN,,0.00,WeatherDisplay:10.37,2013-03-01 13:31:00,
2013-03-01 08:37:00,32.9,29.7,29.99,North,357,0.0,0.0,88,0.00,-SN,,0.00,WeatherDisplay:10.37,2013-03-01 13:37:00,
2013-03-01 08:41:00,33.1,29.9,30.00,North,357,0.0,1.1,88,0.00,-SN,,0.00,WeatherDisplay:10.37,2013-03-01 13:41:00,
2013-03-01 08:47:00,33.3,30.1,29.99,North,357,0.7,2.3,88,0.00,-SN,,0.00,WeatherDisplay:10.37,2013-03-01 13:47:00,
2013-03-01 08:51:00,33.1,29.9,29.99,NW,312,3.5,3.6,88,0.00,-SN,,0.00,WeatherDisplay:10.37,2013-03-01 13:51:00,
2013-03-01 08:56:00,33.1,29.6,30.00,NW,312,4.0,4.0,87,0.00,-SN,,0.00,WeatherDisplay:10.37,2013-03-01 13:56:00,
2013-03-01 09:02:00,33.1,29.6,29.99,NW,312,3.0,3.5,87,0.00,-SN,,0.00,WeatherDisplay:10.37,2013-03-01 14:02:00,
2013-03-01 09:06:00,33.3,29.8,30.00,WNW,289,0.4,1.1,87,0.00,-SN,,0.00,WeatherDisplay:10.37,2013-03-01 14:06:00,
2013-03-01 09:11:00,33.6,30.2,30.00,NW,312,2.5,3.5,87,0.00,-SN,,0.00,WeatherDisplay:10.37,2013-03-01 14:11:00,
2013-03-01 09:16:00,33.6,30.2,29.99,NNW,335,0.6,1.1,87,0.00,-SN,,0.00,WeatherDisplay:10.37,2013-03-01 14:16:00,
2013-03-01 09:21:00,33.6,30.2,30.00,NW,312,2.2,4.0,87,0.00,-SN,,0.00,WeatherDisplay:10.37,2013-03-01 14:21:00,
2013-03-01 09:26:00,33.8,30.3,30.00,NNW,335,2.9,3.5,87,0.00,-SN,,0.00,WeatherDisplay:10.37,2013-03-01 14:26:00,
2013-03-01 09:31:00,33.6,30.2,30.00,NNW,335,5.4,5.8,87,0.00,-SN,,0.00,WeatherDisplay:10.37,2013-03-01 14:31:00,
2013-03-01 09:36:00,33.6,29.9,29.99,North,357,2.6,4.6,86,0.00,-SN,,0.00,WeatherDisplay:10.37,2013-03-01 14:36:00,
2013-03-01 09:41:00,33.8,30.1,30.00,NNW,335,4.2,4.6,86,0.00,-SN,,0.00,WeatherDisplay:10.37,2013-03-01 14:41:00,
2013-03-01 09:46:00,33.8,30.1,30.00,NNW,335,4.9,5.8,86,0.00,-SN,,0.00,WeatherDisplay:10.37,2013-03-01 14:46:00,
2013-03-01 09:51:00,34.0,30.2,30.00,NW,312,2.4,3.6,86,0.00,-SN,,0.00,WeatherDisplay:10.37,2013-03-01 14:51:00,
2013-03-01 09:57:00,34.0,30.2,29.99,NNW,335,2.9,3.5,86,0.00,-SN,,0.00,WeatherDisplay:10.37,2013-03-01 14:57:00,
2013-03-01 10:02:00,34.3,30.6,30.00,NNW,335,4.2,4.6,86,0.00,-SN,,0.00,WeatherDisplay:10.37,2013-03-01 15:02:00,
2013-03-01 10:07:00,34.3,30.3,30.00,North,357,4.3,4.7,85,0.02,-SN,,0.02,WeatherDisplay:10.37,2013-03-01 15:07:00,
2013-03-01 10:11:00,34.3,30.3,30.00,North,357,3.8,3.8,85,0.02,-SN,,0.02,WeatherDisplay:10.37,2013-03-01 15:11:00,
2013-03-01 10:17:00,34.3,30.3,30.00,NW,312,4.1,4.6,85,0.02,-SN,,0.02,WeatherDisplay:10.37,2013-03-01 15:17:00,
2013-03-01 10:21:00,34.3,30.3,30.00,North,357,2.8,3.8,85,0.02,-SN,,0.02,WeatherDisplay:10.37,2013-03-01 15:21:00,
2013-03-01 10:26:00,34.3,30.3,30.00,NW,312,1.8,2.3,85,0.02,-SN,,0.02,WeatherDisplay:10.37,2013-03-01 15:26:00,
2013-03-01 10:31:00,34.9,30.8,30.00,NNW,335,4.3,4.6,85,0.02,-SN,,0.02,WeatherDisplay:10.37,2013-03-01 15:31:00,
2013-03-01 10:37:00,34.9,30.8,30.00,NNW,335,3.4,4.6,85,0.02,-SN,,0.02,WeatherDisplay:10.37,2013-03-01 15:37:00,
2013-03-01 10:42:00,34.9,30.5,30.01,NW,312,8.0,8.1,84,0.04,-SN,,0.04,WeatherDisplay:10.37,2013-03-01 15:42:00,
2013-03-01 10:47:00,35.4,31.1,30.00,NNW,335,0.0,0.0,84,0.04,-SN,,0.04,WeatherDisplay:10.37,2013-03-01 15:47:00,
2013-03-01 10:52:00,35.4,31.1,30.00,NW,312,0.0,0.0,84,0.04,-SN,,0.04,WeatherDisplay:10.37,2013-03-01 15:52:00,
2013-03-01 10:57:00,35.4,30.8,30.00,NNW,335,0.0,0.0,83,0.04,-SN,,0.04,WeatherDisplay:10.37,2013-03-01 15:57:00,
2013-03-01 11:02:00,36.1,31.5,30.00,WNW,289,4.7,5.8,83,0.04,-SN,,0.04,WeatherDisplay:10.37,2013-03-01 16:02:00,
2013-03-01 11:07:00,36.7,32.0,30.00,NW,312,3.8,5.8,83,0.02,-SN,,0.04,WeatherDisplay:10.37,2013-03-01 16:07:00,
2013-03-01 11:12:00,37.0,32.4,30.00,NW,312,3.8,8.1,83,0.02,-SN,,0.04,WeatherDisplay:10.37,2013-03-01 16:12:00,
2013-03-01 11:17:00,37.2,32.2,30.00,NNW,335,9.4,10.4,82,0.04,-SN,,0.06,WeatherDisplay:10.37,2013-03-01 16:17:00,
2013-03-01 11:22:00,37.2,31.9,30.00,NNW,335,5.0,5.8,81,0.04,-SN,,0.06,WeatherDisplay:10.37,2013-03-01 16:22:00,
2013-03-01 11:27:00,37.2,31.9,30.00,NNW,335,3.6,5.8,81,0.04,-SN,,0.06,WeatherDisplay:10.37,2013-03-01 16:27:00,
2013-03-01 11:32:00,37.0,31.4,30.00,NW,312,5.8,5.8,80,0.04,-SN,,0.06,WeatherDisplay:10.37,2013-03-01 16:32:00,
2013-03-01 11:37:00,37.2,31.9,30.00,WNW,289,3.4,3.6,81,0.04,-SN,,0.06,WeatherDisplay:10.37,2013-03-01 16:37:00,
2013-03-01 11:42:00,37.8,32.1,30.00,NW,312,3.6,3.6,80,0.02,-SN,,0.06,WeatherDisplay:10.37,2013-03-01 16:42:00,
2013-03-01 11:47:00,38.1,32.5,30.00,West,267,3.4,4.6,80,0.02,-SN,,0.06,WeatherDisplay:10.37,2013-03-01 16:47:00,
2013-03-01 11:52:00,38.5,32.8,30.00,NW,312,2.1,2.3,80,0.02,-SN,,0.06,WeatherDisplay:10.37,2013-03-01 16:52:00,
2013-03-01 11:57:00,38.5,32.5,30.00,NNW,335,3.6,3.6,79,0.02,-SN,,0.06,WeatherDisplay:10.37,2013-03-01 16:57:00,
2013-03-01 12:02:00,37.9,31.7,30.00,NW,312,5.3,6.3,78,0.02,-SN,,0.06,WeatherDisplay:10.37,2013-03-01 17:02:00,
2013-03-01 12:07:00,37.2,31.0,30.01,WSW,245,2.2,2.3,78,0.02,-SN,,0.06,WeatherDisplay:10.37,2013-03-01 17:07:00,
2013-03-01 12:12:00,37.2,31.6,30.00,West,267,0.0,0.0,80,0.02,-SN,,0.06,WeatherDisplay:10.37,2013-03-01 17:12:00,
2013-03-01 12:17:00,37.9,32.3,30.00,SSW,199,0.0,0.0,80,0.00,-SN,,0.06,WeatherDisplay:10.37,2013-03-01 17:17:00,
2013-03-01 12:22:00,38.5,33.2,30.00,West,267,1.6,2.7,81,0.00,-SN,,0.06,WeatherDisplay:10.37,2013-03-01 17:22:00,
2013-03-01 12:27:00,38.5,32.5,30.00,NW,312,2.9,3.5,79,0.00,-SN,,0.06,WeatherDisplay:10.37,2013-03-01 17:27:00,
2013-03-01 12:32:00,38.1,32.2,30.00,NW,312,6.7,6.9,79,0.00,-SN,,0.06,WeatherDisplay:10.37,2013-03-01 17:32:00,
2013-03-01 12:37:00,37.8,31.8,30.00,NNW,335,4.2,4.6,79,0.00,-SN,,0.06,WeatherDisplay:10.37,2013-03-01 17:37:00,
2013-03-01 12:42:00,37.2,31.3,30.00,NW,312,4.9,4.9,79,0.00,-SN,,0.06,WeatherDisplay:10.37,2013-03-01 17:42:00,
2013-03-01 12:47:00,37.4,31.8,30.00,NW,312,2.4,2.4,80,0.00,-SN,,0.06,WeatherDisplay:10.37,2013-03-01 17:47:00,
2013-03-01 12:52:00,37.6,32.0,30.00,West,267,1.1,1.1,80,0.00,-SN,,0.06,WeatherDisplay:10.37,2013-03-01 17:52:00,
2013-03-01 12:57:00,37.8,31.8,29.99,NNW,335,5.6,5.8,79,0.00,-SN,,0.06,WeatherDisplay:10.37,2013-03-01 17:57:00,
2013-03-01 13:02:00,38.1,32.2,29.99,West,267,3.7,4.6,79,0.00,-SN,,0.06,WeatherDisplay:10.37,2013-03-01 18:02:00,
2013-03-01 13:07:00,38.5,32.5,29.99,NNW,335,2.9,3.5,79,0.00,-SN,,0.06,WeatherDisplay:10.37,2013-03-01 18:07:00,
2013-03-01 13:12:00,39.0,33.1,29.98,West,267,0.0,0.0,79,0.00,-SN,,0.06,WeatherDisplay:10.37,2013-03-01 18:12:00,
2013-03-01 13:17:00,39.9,33.6,29.98,WNW,289,4.4,4.6,78,0.00,-SN,,0.06,WeatherDisplay:10.37,2013-03-01 18:17:00,
2013-03-01 13:22:00,39.6,32.9,29.98,NW,312,6.4,8.1,77,0.00,-SN,,0.06,WeatherDisplay:10.37,2013-03-01 18:22:00,
2013-03-01 13:27:00,39.0,32.4,29.98,WNW,289,2.0,2.3,77,0.00,-SN,,0.06,WeatherDisplay:10.37,2013-03-01 18:27:00,
2013-03-01 13:32:00,39.0,32.4,29.98,NNW,335,4.7,6.9,77,0.00,-SN,,0.06,WeatherDisplay:10.37,2013-03-01 18:32:00,
2013-03-01 13:37:00,38.8,32.2,29.98,NW,312,3.8,3.8,77,0.00,-SN,,0.06,WeatherDisplay:10.37,2013-03-01 18:37:00,
2013-03-01 13:42:00,38.3,31.7,29.98,NW,312,6.9,6.9,77,0.00,-SN,,0.06,WeatherDisplay:10.37,2013-03-01 18:42:00,
2013-03-01 13:47:00,37.6,31.3,29.98,NNW,335,4.3,4.6,78,0.00,-SN,,0.06,WeatherDisplay:10.37,2013-03-01 18:47:00,
2013-03-01 13:52:00,37.4,31.5,29.98,North,357,2.5,3.5,79,0.00,-SN,,0.06,WeatherDisplay:10.37,2013-03-01 18:52:00,
2013-03-01 13:57:00,37.6,31.7,29.98,NNW,335,4.0,4.0,79,0.00,-SN,,0.06,WeatherDisplay:10.37,2013-03-01 18:57:00,
2013-03-01 14:02:00,37.6,31.7,29.98,NNW,335,3.7,4.6,79,0.00,-SN,,0.06,WeatherDisplay:10.37,2013-03-01 19:02:00,
2013-03-01 14:07:00,37.4,31.5,29.97,West,267,0.0,0.0,79,0.00,-SN,,0.06,WeatherDisplay:10.37,2013-03-01 19:07:00,
2013-03-01 14:12:00,37.8,31.8,29.97,NW,312,2.7,2.7,79,0.00,-SN,,0.06,WeatherDisplay:10.37,2013-03-01 19:12:00,
2013-03-01 14:17:00,38.3,32.4,29.97,NNW,335,3.4,4.0,79,0.00,-SN,,0.06,WeatherDisplay:10.37,2013-03-01 19:17:00,
2013-03-01 14:22:00,38.3,32.4,29.97,NW,312,3.9,4.6,79,0.00,-SN,,0.06,WeatherDisplay:10.37,2013-03-01 19:22:00,
2013-03-01 14:27:00,38.1,32.2,29.97,NW,312,3.8,3.8,79,0.00,-SN,,0.06,WeatherDisplay:10.37,2013-03-01 19:27:00,
2013-03-01 14:32:00,37.9,32.0,29.97,NW,312,1.9,3.5,79,0.00,-SN,,0.06,WeatherDisplay:10.37,2013-03-01 19:32:00,
2013-03-01 14:37:00,38.1,32.2,29.97,NNW,335,2.2,2.3,79,0.00,-SN,,0.06,WeatherDisplay:10.37,2013-03-01 19:37:00,
2013-03-01 14:42:00,38.8,32.9,29.96,WNW,289,2.5,2.5,79,0.00,-SN,,0.06,WeatherDisplay:10.37,2013-03-01 19:42:00,
2013-03-01 14:47:00,39.0,33.1,29.97,NW,312,5.1,5.8,79,0.00,-SN,,0.06,WeatherDisplay:10.37,2013-03-01 19:47:00,
2013-03-01 14:52:00,39.6,33.6,29.96,WNW,289,2.2,2.3,79,0.00,-SN,,0.06,WeatherDisplay:10.37,2013-03-01 19:52:00,
2013-03-01 14:57:00,40.3,34.0,29.96,WNW,289,6.0,6.0,78,0.00,-SN,,0.06,WeatherDisplay:10.37,2013-03-01 19:57:00,
2013-03-01 15:02:00,40.3,33.6,29.96,West,267,4.7,4.7,77,0.00,-SN,,0.06,WeatherDisplay:10.37,2013-03-01 20:02:00,
2013-03-01 15:07:00,39.9,33.0,29.96,NW,312,6.3,6.3,76,0.00,-SN,,0.06,WeatherDisplay:10.37,2013-03-01 20:07:00,
2013-03-01 15:12:00,39.0,32.4,29.96,North,357,5.3,5.8,77,0.00,CLR,,0.06,WeatherDisplay:10.37,2013-03-01 20:12:00,
2013-03-01 15:17:00,38.8,32.6,29.96,WNW,289,6.3,6.9,78,0.00,CLR,,0.06,WeatherDisplay:10.37,2013-03-01 20:17:00,
2013-03-01 15:22:00,38.7,32.4,29.96,NW,312,4.9,8.1,78,0.00,CLR,,0.06,WeatherDisplay:10.37,2013-03-01 20:22:00,
2013-03-01 15:27:00,39.0,33.1,29.96,WNW,289,3.9,3.9,79,0.00,CLR,,0.06,WeatherDisplay:10.37,2013-03-01 20:27:00,
2013-03-01 15:32:00,39.0,32.7,29.96,NW,312,4.9,4.9,78,0.00,CLR,,0.06,WeatherDisplay:10.37,2013-03-01 20:32:00,
2013-03-01 15:37:00,38.8,32.6,29.96,NNW,335,8.8,9.2,78,0.00,CLR,,0.06,WeatherDisplay:10.37,2013-03-01 20:37:00,
2013-03-01 15:42:00,38.3,32.0,29.96,NNW,335,2.9,3.5,78,0.00,CLR,,0.06,WeatherDisplay:10.37,2013-03-01 20:42:00,
2013-03-01 15:47:00,38.5,32.2,29.96,WNW,289,7.2,7.2,78,0.00,CLR,,0.06,WeatherDisplay:10.37,2013-03-01 20:47:00,
2013-03-01 15:52:00,38.3,32.0,29.96,NW,312,8.0,9.2,78,0.00,CLR,,0.06,WeatherDisplay:10.37,2013-03-01 20:52:00,
2013-03-01 15:57:00,37.9,31.7,29.95,NW,312,11.2,11.5,78,0.00,CLR,,0.06,WeatherDisplay:10.37,2013-03-01 20:57:00,
2013-03-01 16:02:00,37.9,31.7,29.96,NNW,335,8.7,10.4,78,0.00,CLR,,0.06,WeatherDisplay:10.37,2013-03-01 21:02:00,
2013-03-01 16:07:00,37.9,32.0,29.96,NNW,335,5.8,5.8,79,0.00,CLR,,0.06,WeatherDisplay:10.37,2013-03-01 21:07:00,
2013-03-01 16:12:00,37.9,31.7,29.96,NW,312,10.8,11.5,78,0.00,-SN,,0.06,WeatherDisplay:10.37,2013-03-01 21:12:00,
2013-03-01 16:17:00,37.6,31.0,29.97,WNW,289,5.1,6.9,77,0.00,-SN,,0.06,WeatherDisplay:10.37,2013-03-01 21:17:00,
2013-03-01 16:22:00,37.6,30.7,29.97,NW,312,8.0,17.3,76,0.00,-SN,,0.06,WeatherDisplay:10.37,2013-03-01 21:22:00,
2013-03-01 16:27:00,37.6,30.7,29.97,West,267,8.0,8.1,76,0.00,-SN,,0.06,WeatherDisplay:10.37,2013-03-01 21:27:00,
2013-03-01 16:32:00,37.6,30.7,29.97,NW,312,2.9,3.5,76,0.00,-SN,,0.06,WeatherDisplay:10.37,2013-03-01 21:32:00,
2013-03-01 16:37:00,37.8,30.9,29.97,SW,222,5.4,5.8,76,0.00,-SN,,0.06,WeatherDisplay:10.37,2013-03-01 21:37:00,
2013-03-01 16:42:00,37.9,31.0,29.97,WNW,289,4.2,4.6,76,0.00,-SN,,0.06,WeatherDisplay:10.37,2013-03-01 21:42:00,
2013-03-01 16:47:00,37.8,30.9,29.97,WNW,289,7.1,9.2,76,0.00,-SN,,0.06,WeatherDisplay:10.37,2013-03-01 21:47:00,
2013-03-01 16:52:00,37.8,30.9,29.97,West,267,2.7,2.7,76,0.00,-SN,,0.06,WeatherDisplay:10.37,2013-03-01 21:52:00,
2013-03-01 16:57:00,37.9,31.4,29.97,NNW,335,2.9,5.8,77,0.00,-SN,,0.06,WeatherDisplay:10.37,2013-03-01 21:57:00,
2013-03-01 17:02:00,37.9,31.0,29.97,NNW,335,0.4,1.6,76,0.00,-SN,,0.06,WeatherDisplay:10.37,2013-03-01 22:02:00,
2013-03-01 17:07:00,37.8,31.2,29.97,NNW,335,5.8,5.8,77,0.00,-SN,,0.06,WeatherDisplay:10.37,2013-03-01 22:07:00,
2013-03-01 17:12:00,37.2,31.0,29.97,NW,312,9.0,9.2,78,0.00,-SN,,0.06,WeatherDisplay:10.37,2013-03-01 22:12:00,
2013-03-01 17:17:00,36.9,30.6,29.97,NW,312,0.2,4.9,78,0.00,-SN,,0.06,WeatherDisplay:10.37,2013-03-01 22:17:00,
2013-03-01 17:22:00,36.5,30.3,29.97,NW,312,8.5,8.5,78,0.00,-SN,,0.06,WeatherDisplay:10.37,2013-03-01 22:22:00,
2013-03-01 17:27:00,36.5,30.3,29.98,NW,312,3.9,8.0,78,0.00,-SN,,0.06,WeatherDisplay:10.37,2013-03-01 22:27:00,
2013-03-01 17:32:00,36.3,30.4,29.97,NW,312,9.3,10.4,79,0.00,-SN,,0.06,WeatherDisplay:10.37,2013-03-01 22:32:00,
2013-03-01 17:37:00,36.3,30.1,29.98,West,267,6.5,6.9,78,0.00,-SN,,0.06,WeatherDisplay:10.37,2013-03-01 22:37:00,
2013-03-01 17:42:00,36.3,30.4,29.98,WNW,289,5.3,5.8,79,0.00,-SN,,0.06,WeatherDisplay:10.37,2013-03-01 22:42:00,
2013-03-01 17:47:00,36.3,30.4,29.98,NW,312,8.9,9.2,79,0.00,-SN,,0.06,WeatherDisplay:10.37,2013-03-01 22:47:00,
2013-03-01 17:52:00,36.3,30.4,29.98,NW,312,6.0,6.0,79,0.00,-SN,,0.06,WeatherDisplay:10.37,2013-03-01 22:52:00,
2013-03-01 17:57:00,36.0,30.1,29.98,WNW,289,6.3,6.3,79,0.00,-SN,,0.06,WeatherDisplay:10.37,2013-03-01 22:57:00,
2013-03-01 18:02:00,35.6,30.0,29.99,West,267,2.7,6.9,80,0.00,-SN,,0.06,WeatherDisplay:10.37,2013-03-01 23:02:00,
2013-03-01 18:07:00,35.4,29.9,29.99,NW,312,7.1,11.5,80,0.00,-SN,,0.06,WeatherDisplay:10.37,2013-03-01 23:07:00,
2013-03-01 18:12:00,34.7,29.2,29.99,West,267,3.2,3.5,80,0.00,OVC,,0.06,WeatherDisplay:10.37,2013-03-01 23:12:00,
2013-03-01 18:17:00,34.5,29.0,29.99,WNW,289,3.2,3.5,80,0.00,OVC,,0.06,WeatherDisplay:10.37,2013-03-01 23:17:00,
2013-03-01 18:22:00,34.3,29.1,29.99,WNW,289,3.8,3.8,81,0.00,OVC,,0.06,WeatherDisplay:10.37,2013-03-01 23:22:00,
2013-03-01 18:27:00,34.3,29.1,30.00,NW,312,0.4,0.0,81,0.00,OVC,,0.06,WeatherDisplay:10.37,2013-03-01 23:27:00,
2013-03-01 18:32:00,34.2,28.9,30.00,West,267,2.5,3.5,81,0.00,OVC,,0.06,WeatherDisplay:10.37,2013-03-01 23:32:00,
2013-03-01 18:37:00,34.0,29.1,30.00,NW,312,2.0,2.3,82,0.00,OVC,,0.06,WeatherDisplay:10.37,2013-03-01 23:37:00,
2013-03-01 18:42:00,33.8,28.9,30.00,NW,312,2.2,2.3,82,0.00,OVC,,0.06,WeatherDisplay:10.37,2013-03-01 23:42:00,
2013-03-01 18:47:00,33.6,28.7,29.99,NW,312,2.2,3.5,82,0.00,OVC,,0.06,WeatherDisplay:10.37,2013-03-01 23:47:00,
2013-03-01 18:52:00,33.6,28.7,29.99,West,267,5.0,6.9,82,0.00,OVC,,0.06,WeatherDisplay:10.37,2013-03-01 23:52:00,
2013-03-01 18:57:00,33.4,28.8,29.99,West,267,0.5,3.1,83,0.00,OVC,,0.06,WeatherDisplay:10.37,2013-03-01 23:57:00,
2013-03-01 19:02:00,33.4,28.8,30.00,WNW,289,0.0,2.9,83,0.00,OVC,,0.06,WeatherDisplay:10.37,2013-03-02 00:02:00,
2013-03-01 19:07:00,33.4,28.8,29.99,WNW,289,2.5,2.5,83,0.00,OVC,,0.06,WeatherDisplay:10.37,2013-03-02 00:07:00,
2013-03-01 19:12:00,33.3,28.9,30.00,NW,312,2.9,3.5,84,0.00,-SN,,0.06,WeatherDisplay:10.37,2013-03-02 00:12:00,
2013-03-01 19:17:00,33.3,28.9,30.00,NNW,335,3.6,3.6,84,0.00,-SN,,0.06,WeatherDisplay:10.37,2013-03-02 00:17:00,
2013-03-01 19:22:00,33.3,28.9,30.00,NNW,335,6.7,6.9,84,0.00,-SN,,0.06,WeatherDisplay:10.37,2013-03-02 00:22:00,
2013-03-01 19:27:00,33.3,28.9,30.00,NW,312,5.3,6.9,84,0.00,-SN,,0.06,WeatherDisplay:10.37,2013-03-02 00:27:00,
2013-03-01 19:32:00,33.3,28.9,30.00,WNW,289,1.6,3.5,84,0.00,-SN,,0.06,WeatherDisplay:10.37,2013-03-02 00:32:00,
2013-03-01 19:37:00,33.3,28.9,30.00,NNW,335,3.4,3.5,84,0.00,-SN,,0.06,WeatherDisplay:10.37,2013-03-02 00:37:00,
2013-03-01 19:42:00,32.9,28.6,30.00,NNW,335,5.9,6.9,84,0.00,-SN,,0.06,WeatherDisplay:10.37,2013-03-02 00:42:00,
2013-03-01 19:47:00,32.7,28.4,30.00,WNW,289,5.8,5.8,84,0.00,-SN,,0.06,WeatherDisplay:10.37,2013-03-02 00:47:00,
2013-03-01 19:52:00,32.7,28.4,30.00,NW,312,4.5,4.6,84,0.00,-SN,,0.06,WeatherDisplay:10.37,2013-03-02 00:52:00,
2013-03-01 19:57:00,32.5,28.2,30.00,NW,312,4.2,4.5,84,0.00,-SN,,0.06,WeatherDisplay:10.37,2013-03-02 00:57:00,
2013-03-01 20:02:00,32.4,28.1,30.00,NNW,335,5.2,6.9,84,0.00,-SN,,0.06,WeatherDisplay:10.37,2013-03-02 01:02:00,
2013-03-01 20:07:00,32.4,28.1,30.00,NW,312,0.0,0.0,84,0.00,-SN,,0.06,WeatherDisplay:10.37,2013-03-02 01:07:00,
2013-03-01 20:12:00,32.2,28.2,30.00,NW,312,7.0,8.1,85,0.00,-SN,,0.06,WeatherDisplay:10.37,2013-03-02 01:12:00,
2013-03-01 20:17:00,32.2,28.2,30.00,NW,312,3.8,4.6,85,0.00,-SN,,0.06,WeatherDisplay:10.37,2013-03-02 01:17:00,
2013-03-01 20:22:00,32.2,28.2,30.01,NW,312,2.5,2.5,85,0.00,-SN,,0.06,WeatherDisplay:10.37,2013-03-02 01:22:00,
2013-03-01 20:27:00,32.2,28.2,30.01,NW,312,4.9,6.0,85,0.00,-SN,,0.06,WeatherDisplay:10.37,2013-03-02 01:27:00,
2013-03-01 20:32:00,32.2,28.2,30.00,NW,312,4.7,5.8,85,0.00,-SN,,0.06,WeatherDisplay:10.37,2013-03-02 01:32:00,
2013-03-01 20:37:00,32.2,28.2,30.00,NW,312,5.8,5.8,85,0.00,-SN,,0.06,WeatherDisplay:10.37,2013-03-02 01:37:00,
2013-03-01 20:42:00,32.2,28.2,30.01,NW,312,3.3,3.5,85,0.00,-SN,,0.06,WeatherDisplay:10.37,2013-03-02 01:42:00,
2013-03-01 20:47:00,32.2,28.5,30.01,NW,312,5.0,5.1,86,0.00,-SN,,0.06,WeatherDisplay:10.37,2013-03-02 01:47:00,
2013-03-01 20:52:00,32.2,28.5,30.01,NW,312,2.8,4.7,86,0.00,-SN,,0.06,WeatherDisplay:10.37,2013-03-02 01:52:00,
2013-03-01 20:57:00,32.2,28.5,30.01,NW,312,5.3,6.9,86,0.00,-SN,,0.06,WeatherDisplay:10.37,2013-03-02 01:57:00,
2013-03-01 21:02:00,32.2,28.5,30.01,NW,312,5.4,5.8,86,0.00,-SN,,0.06,WeatherDisplay:10.37,2013-03-02 02:02:00,
2013-03-01 21:07:00,32.2,28.5,30.01,NW,312,4.1,8.5,86,0.00,-SN,,0.06,WeatherDisplay:10.37,2013-03-02 02:07:00,
2013-03-01 21:12:00,32.2,28.5,30.00,NW,312,2.2,3.5,86,0.00,-SN,,0.06,WeatherDisplay:10.37,2013-03-02 02:12:00,
2013-03-01 21:17:00,32.2,28.5,30.01,NW,312,4.0,4.0,86,0.00,-SN,,0.06,WeatherDisplay:10.37,2013-03-02 02:17:00,
2013-03-01 21:22:00,32.2,28.5,30.01,NW,312,3.6,3.6,86,0.00,-SN,,0.06,WeatherDisplay:10.37,2013-03-02 02:22:00,
2013-03-01 21:27:00,32.2,28.5,30.01,NW,312,4.9,5.8,86,0.00,-SN,,0.06,WeatherDisplay:10.37,2013-03-02 02:27:00,
2013-03-01 21:32:00,32.2,28.5,30.01,NW,312,4.9,4.9,86,0.00,-SN,,0.06,WeatherDisplay:10.37,2013-03-02 02:32:00,
2013-03-01 21:37:00,32.0,28.3,30.01,NW,312,3.6,3.6,86,0.00,-SN,,0.06,WeatherDisplay:10.37,2013-03-02 02:37:00,
2013-03-01 21:42:00,32.0,28.3,30.01,NW,312,3.0,3.5,86,0.00,-SN,,0.06,WeatherDisplay:10.37,2013-03-02 02:42:00,
2013-03-01 21:47:00,32.0,28.3,30.01,NW,312,1.8,3.5,86,0.00,-SN,,0.06,WeatherDisplay:10.37,2013-03-02 02:47:00,
2013-03-01 21:52:00,32.0,28.3,30.01,NW,312,2.5,2.5,86,0.00,-SN,,0.06,WeatherDisplay:10.37,2013-03-02 02:52:00,
2013-03-01 21:57:00,31.8,28.1,30.01,NW,312,0.9,2.3,86,0.00,-SN,,0.06,WeatherDisplay:10.37,2013-03-02 02:57:00,
2013-03-01 22:02:00,31.8,28.1,30.02,NW,312,5.6,5.8,86,0.00,-SN,,0.06,WeatherDisplay:10.37,2013-03-02 03:02:00,
2013-03-01 22:07:00,32.0,28.3,30.01,NW,312,4.7,4.7,86,0.00,-SN,,0.06,WeatherDisplay:10.37,2013-03-02 03:07:00,
2013-03-01 22:12:00,31.8,28.1,30.02,NW,312,0.4,1.1,86,0.00,-SN,,0.06,WeatherDisplay:10.37,2013-03-02 03:12:00,
2013-03-01 22:17:00,31.8,28.1,30.02,NW,312,0.0,3.5,86,0.00,-SN,,0.06,WeatherDisplay:10.37,2013-03-02 03:17:00,
2013-03-01 22:22:00,31.8,28.1,30.02,NW,312,3.3,3.8,86,0.00,-SN,,0.06,WeatherDisplay:10.37,2013-03-02 03:22:00,
2013-03-01 22:27:00,31.8,28.1,30.02,NW,312,2.5,2.5,86,0.00,-SN,,0.06,WeatherDisplay:10.37,2013-03-02 03:27:00,
2013-03-01 22:32:00,31.8,28.1,30.01,NW,312,4.0,4.0,86,0.00,-SN,,0.06,WeatherDisplay:10.37,2013-03-02 03:32:00,
2013-03-01 22:37:00,31.8,28.1,30.01,NW,312,1.1,1.1,86,0.00,-SN,,0.06,WeatherDisplay:10.37,2013-03-02 03:37:00,
2013-03-01 22:42:00,31.8,28.1,30.01,NW,312,0.9,2.3,86,0.00,-SN,,0.06,WeatherDisplay:10.37,2013-03-02 03:42:00,
2013-03-01 22:47:00,31.8,28.1,30.01,NW,312,2.5,2.5,86,0.00,-SN,,0.06,WeatherDisplay:10.37,2013-03-02 03:47:00,
2013-03-01 22:52:00,31.8,28.1,30.01,NW,312,5.9,5.9,86,0.00,-SN,,0.06,WeatherDisplay:10.37,2013-03-02 03:52:00,
2013-03-01 22:57:00,31.8,28.1,30.01,NW,312,1.8,2.3,86,0.00,-SN,,0.06,WeatherDisplay:10.37,2013-03-02 03:57:00,
2013-03-01 23:02:00,31.8,28.1,30.01,NW,312,1.1,3.5,86,0.00,-SN,,0.06,WeatherDisplay:10.37,2013-03-02 04:02:00,
2013-03-01 23:07:00,31.8,28.1,30.01,NW,312,2.5,4.9,86,0.00,-SN,,0.06,WeatherDisplay:10.37,2013-03-02 04:07:00,
2013-03-01 23:12:00,31.6,27.9,30.01,NW,312,3.7,4.6,86,0.00,-SN,,0.06,WeatherDisplay:10.37,2013-03-02 04:12:00,
2013-03-01 23:17:00,31.6,27.9,30.01,NW,312,3.8,3.8,86,0.00,-SN,,0.06,WeatherDisplay:10.37,2013-03-02 04:17:00,
2013-03-01 23:22:00,31.6,27.9,30.01,NW,312,3.8,3.8,86,0.00,-SN,,0.06,WeatherDisplay:10.37,2013-03-02 04:22:00,
2013-03-01 23:27:00,31.6,27.9,30.01,NW,312,5.9,6.9,86,0.00,-SN,,0.06,WeatherDisplay:10.37,2013-03-02 04:27:00,
2013-03-01 23:32:00,31.6,27.9,30.01,NW,312,0.0,0.0,86,0.00,-SN,,0.06,WeatherDisplay:10.37,2013-03-02 04:32:00,
2013-03-01 23:37:00,31.6,27.9,30.00,NW,312,3.8,6.3,86,0.00,-SN,,0.06,WeatherDisplay:10.37,2013-03-02 04:37:00,
2013-03-01 23:42:00,31.6,27.9,30.01,NW,312,3.2,3.5,86,0.00,-SN,,0.06,WeatherDisplay:10.37,2013-03-02 04:42:00,
2013-03-01 23:47:00,31.6,27.9,30.01,NW,312,2.7,3.5,86,0.00,-SN,,0.06,WeatherDisplay:10.37,2013-03-02 04:47:00,
2013-03-01 23:52:00,31.6,27.9,30.00,NW,312,0.2,2.5,86,0.00,-SN,,0.06,WeatherDisplay:10.37,2013-03-02 04:52:00,
2013-03-01 23:57:00,31.6,27.9,30.01,NW,312,4.6,5.1,86,0.00,-SN,,0.06,WeatherDisplay:10.37,2013-03-02 04:57:00,